Location: Famechon
(49.7599°N, 2.0615°E)
Time: 22:47:43
(UTC+00:00)

Cosmos 2315 Rocket - Pass Details

Date: 03 February 2023
Orbit: 965 x 1002 km, 82.9° (Epoch: 01 April)

Event Time Altitude Azimuth Distance (km) Brightness Sun altitude
Rises 18:48:23 0° 160° (SSE) 3,692 6.9 -19.3°
Reaches altitude 10° 18:51:04 10° 152° (SSE) 2,753 6.1 -19.8°
Maximum altitude 18:56:47 38° 87° (E) 1,490 4.4 -20.7°
Drops below altitude 10° 19:02:35 10° 22° (NNE) 2,785 6.2 -21.6°
Sets 19:05:17 0° 15° (NNE) 3,741 6.9 -22.1°
